Orbital Elements at Epoch 2459133.5 (2020-Oct-11.0) TDB
Reference: JPL 5 (heliocentric ecliptic J2000)
Element | Value | Uncertainty (1-sigma) | Units |
e | .57234614258396 | 0.0026274 | |
a | 2.368362818557323 | 0.014777 | au |
q | 1.012839495116764 | 9.6849e-05 | au |
i | 2.988860890780384 | 0.010167 | deg |
node | 201.2658252609948 | 0.00038139 | deg |
peri | 206.766314715731 | 0.0015831 | deg |
M | 352.9066409028637 | 0.069757 | deg |
tp | 2459159.731324740192 (2020-Nov-06.23132474) | 0.012468 | TDB |
period | 1331.284202188718 3.64 | 12.459 0.03411 | d yr |
n | .2704155877521393 | 0.0025308 | deg/d |
Q | 3.723886141997882 | 0.023235 | au |
|
| | Orbit Determination Parameters
Additional Information
|